SCP
0 0 0 0 0 0 0 0 0 0 0 0 0 0 0 0 0 0 0 0 0 0 0 0 0 0 0 0 0 0 0 0 0 0 0 0 0 0 0 0 0 0 0 0
0 0 0 0 0 0 0 0 0 0 0 0 0 0 0 0 0 0 0 0 0 0 0 0 0 0 0 0 0 0 0 0 0 0 0 0 0 0 0 0 0 0 0 0
0 0 0 0 0 0 0 0 0 0 0 0 0 0 0 0 0 0 0 0 0 0 0 0 0 0 0 0 0 0 0 0 0 0 0 0 0 0 0 0 0 0 0 0
0 0 0 0 0 0 0 0 0 0 0 0 0 0 0 0 0 0 0 0 0 0 0 0 0 0 0 0 0 0 0 0 0 0 0 0 0 0 0 0 0 0 0 0
0 0 0 0 0 0 0 0 0 0 0 0 0 0 0 0 0 0 0 0 0 0 0 0 0 0 0 0 0 0 0 0 0 0 0 0 0 0 0 0 0 0 0 0
0 0 0 0 0 0 0 0 0 0 0 0 0 0 0 0 0 0 0 0 0 0 0 0 0 0 0 0 0 0 0 0 0 0 0 0 0 0 0 0 0 0 0 0
0 0 0 0 0 0 0 0 0 0 0 0 0 0 0 0 0 0 0 0 0 0 0 0 0 0 0 0 0 0 0 0 0 0 0 0 0 0 0 0 0 0 0 0
0 0 0 0 0 0 0 0 0 0 0 0 0 0 0 0 0 0 0 0 0 0 0 0 0 0 0 0 0 0 0 0 0 0 0 0 0 0 0 0 0 0 0 0
0 0 0 0 0 0 0 0 0 0 0 0 0 0 0 0 0 0 0 0 0 0 0 0 0 0 0 0 0 0 0 0 0 0 0 0 0 0 0 0 0 0 0 0
0 0 0 0 0 0 0 0 0 0 0 0 0 0 0 0 0 0 0 0 0 0 0 0 0 0 0 0 0 0 0 0 0 0 0 0 0 0 0 0 0 0 0 0
0 0 0 0 0 0 0 0 0 0 0 0 0 0 0 0 0 0 0 0 0 0 0 0 0 0 0 0 0 0 0 0 0 0 0 0 0 0 0 0 0 0 0 0
0 0 0 0 0 0 0 0 0 0 0 0 0 0 0 0 0 0 0 0 0 0 0 0 0 0 0 0 0 0 0 0 0 0 0 0 0 0 0 0 0 0 0 0
0 0 0 0 0 0 0 0 0 0 0 0 0 0 0 0 0 0 0 0 0 0 0 0 0 0 0 0 0 0 0 0 0 0 0 0 0 0 0 0 0 0 0 0
0 0 0 0 0 0 0 0 0 0 0 0 0 0 0 0 0 0 0 0 0 0 0 0 0 0 0 0 0 0 0 0 0 0 0 0 0 0 0 0 0 0 0 0
0 0 0 0 0 0 0 0 0 0 0 0 0 0 0 0 0 0 0 0 0 0 0 0 0 0 0 0 0 0 0 0 0 0 0 0 0 0 0 0 0 0 0 0
0 0 0 0 0 0 0 0 0 0 0 0 0 0 0 0 0 0 0 0 0 0 0 0 0 0 0 0 0 0 0 0 0 0 0 0 0 0 0 0 0 0 0 0
0 0 0 0 0 0 0 0 0 0 0 0 0 0 0 0 0 0 0 0 0 0 0 0 0 0 0 0 0 0 0 0 0 0 0 0 0 0 0 0 0 0 0 0
0 0 0 0 0 0 0 0 0 0 0 0 0 0 0 0 0 0 0 0 0 0 0 0 0 0 0 0 0 0 0 0 0 0 0 0 0 0 0 0 0 0 0 0
0 0 0 0 0 0 0 0 0 0 0 0 0 0 0 0 0 0 0 0 0 0 0 0 0 0 0 0 0 0 0 0 0 0 0 0 0 0 0 0 0 0 0 0
0 0 0 0 0 0 0 0 0 0 0 0 0 0 0 0 0 0 0 0 0 0 0 0 0 0 0 0 0 0 0 0 0 0 0 0 0 0 0 0 0 0 0 0
0 0 0 0 0 0 0 0 0 0 0 0 0 0 0 0 0 0 0 0 0 0 0 0 0 0 0 0 0 0 0 0 0 0 0 0 0 0 0 0 0 0 0 0
0 0 0 0 0 0 0 0 0 0 0 0 0 0 0 0 0 0 0 0 0 0 0 0 0 0 0 0 0 0 0 0 0 0 0 0 0 0 0 0 0 0 0 0
0 0 0 0 0 0 0 0 0 0 0 0 0 0 0 0 0 0 0 0 0 0 0 0 0 0 0 0 0 0 0 0 0 0 0 0 0 0 0 0 0 -0 -0 -0
0 0 0 0 0 0 0 0 0 0 0 0 0 0 0 0 0 0 0 0 0 0 0 0 0 0 0 0 0 0 0 0 0 0 0 0 0 0 0 0 0 0 0 0
0 0 0 0 0 0 0 0 0 0 0 0 0 0 0 0 0 0 0 0 0 0 0 0 0 0 0 0 0 0 0 0 0 0 0 0 0 0 0 0 0 0 0 0
0 0 0 0 0 0 0 0 0 0 0 0 0 0 0 0 0 0 0 0 0 0 0 0 0 0 0 0 0 0 0 0 0 0 0 0 0 0 0 0 0 0 0 0
0 0 0 0 0 0 0 0 0 0 0 0 0 0 0 0 0 0 0 0 0 0 0 0 0 0 0 0 0 0 0 0 0 0 0 0 0 0 0 0 0 0 0 0
Wind_Speed
9 9 6 7 10 10 13 14 14 20 20 26 20 15 13 11 10 11 11 10 9 9 8 7 6 6 8 9 10 11 13 16 19 16 15 14 15 14 14 14 14 12 11 10
6 8 8 8 14 19 19 16 15 20 24 19 11 7 8 9 8 9 10 10 10 9 9 9 8 7 8 10 10 12 15 17 15 13 14 14 14 13 13 13 12 11 11 11
7 4 4 10 15 17 11 9 10 13 13 7 10 11 10 9 7 7 9 10 10 10 10 10 9 8 9 10 9 12 15 15 13 13 14 14 14 14 14 13 12 12 11 11
4 1 11 12 5 8 10 12 11 10 10 10 10 11 9 7 4 8 9 10 11 10 11 10 10 8 7 7 8 10 13 14 13 12 13 11 12 13 13 11 11 11 11 11
3 6 12 10 10 6 7 9 6 6 8 8 7 6 6 3 3 7 10 11 11 11 11 11 11 9 7 7 7 9 13 13 11 11 12 12 14 14 13 11 11 11 10 11
4 6 11 11 5 0 1 8 4 2 4 6 6 7 8 8 10 11 11 10 10 9 10 11 11 7 7 8 8 12 13 11 10 11 13 15 15 13 11 11 11 11 11 11
7 9 13 11 4 0 3 7 3 3 6 6 5 7 10 12 12 11 12 12 10 10 9 11 10 7 8 10 12 12 9 8 9 11 13 12 11 10 10 11 10 10 10 9
6 7 13 6 4 6 8 6 7 8 8 9 10 10 11 11 10 10 10 10 9 9 10 11 9 7 9 12 12 9 7 8 9 10 10 10 10 10 11 12 11 10 9 8
12 12 8 4 8 8 7 11 12 10 10 10 10 11 11 9 9 9 9 9 9 9 11 12 9 7 11 13 11 9 8 8 8 8 9 9 10 11 11 11 10 9 9 8
10 13 12 12 11 12 14 16 12 10 9 9 10 9 9 8 8 8 9 10 9 10 12 14 12 10 10 12 10 9 9 8 6 7 8 8 9 10 11 11 11 10 10 9
16 15 13 11 12 12 11 10 10 10 8 6 6 6 6 7 9 9 9 9 8 10 12 14 14 13 12 11 9 9 9 7 6 7 8 9 10 10 12 11 13 12 10 9
22 14 14 15 10 11 13 11 9 6 5 4 3 5 7 8 9 9 10 10 10 11 12 14 13 14 13 10 9 9 8 6 5 5 6 7 8 8 17 16 20 22 16 12
21 16 16 16 12 9 8 6 3 2 3 5 5 6 7 9 9 10 11 11 12 12 13 14 13 14 13 10 8 8 9 7 5 6 7 8 8 9 8 13 20 21 20 18
12 12 14 11 9 6 3 1 1 2 4 5 7 7 8 9 10 12 13 12 12 13 14 13 13 14 12 9 9 9 8 9 8 6 7 7 8 8 8 8 9 10 15 20
9 8 9 7 4 2 1 1 3 5 6 7 7 8 9 11 13 14 14 13 12 12 13 12 13 14 11 9 9 9 7 5 5 5 6 7 7 7 7 8 8 7 5 9
8 6 5 3 2 1 2 3 4 7 8 9 10 11 11 12 13 14 13 11 11 14 14 13 14 13 11 9 9 8 6 11 9 5 6 6 7 7 7 8 8 8 8 8
5 3 2 1 2 2 3 5 6 8 9 11 13 13 13 13 13 13 13 10 10 13 13 13 13 12 11 9 8 7 6 7 11 7 5 6 6 7 7 7 8 8 7 10
3 2 2 1 3 5 6 7 8 9 10 12 12 12 12 13 14 15 14 13 13 13 13 11 10 10 9 9 7 6 5 5 5 5 5 7 7 7 7 7 8 8 5 8
0 1 2 4 5 6 7 9 10 9 11 11 11 12 13 13 14 13 12 12 14 15 12 9 17 13 10 11 11 5 5 6 6 5 5 10 9 7 7 8 8 8 7 7
3 4 5 7 7 7 9 11 11 11 11 10 12 13 13 13 12 12 12 12 12 11 11 14 13 11 10 10 12 5 6 6 6 6 6 7 7 7 8 8 8 8 8 8
6 7 8 9 9 10 10 11 11 13 12 11 12 13 14 14 13 11 11 13 12 11 11 17 12 9 9 10 13 6 6 6 7 7 7 7 7 8 8 8 8 8 8 8
7 8 10 10 11 12 10 9 11 12 12 12 12 13 13 13 12 11 11 11 12 16 13 9 9 13 16 17 8 7 7 7 7 6 7 7 7 8 8 8 8 8 8 7
9 10 11 11 12 12 11 10 11 11 12 12 13 13 13 12 10 11 13 9 9 17 14 10 15 22 25 13 7 7 7 7 7 7 7 7 7 7 7 8 8 8 7 7
11 11 11 11 10 11 13 12 11 10 11 12 12 13 12 11 10 9 10 16 21 22 13 15 23 25 22 8 7 7 7 7 7 7 7 7 7 7 7 7 7 7 7 8
11 11 11 10 10 10 11 11 10 11 11 10 11 12 10 8 10 11 11 13 19 21 13 16 22 22 13 7 8 8 6 6 6 6 7 7 7 7 7 7 7 7 7 7
11 10 9 9 9 10 9 8 9 9 10 11 10 9 9 8 10 11 10 12 15 19 15 11 11 12 8 7 8 7 6 6 5 6 6 7 7 7 7 7 9 8 7 7
9 9 8 8 8 9 8 8 9 10 10 11 12 11 10 10 10 11 12 12 12 12 11 10 9 8 7 7 6 6 4 4 4 4 5 6 6 6 7 8 7 7 7 7
Wind_Direction
254 269 269 244 250 232 216 224 238 261 266 276 289 302 304 306 312 316 319 325 325 320 315 308 283 249 232 230 217 209 212 218 223 220 216 213 208 202 195 192 193 191 193 202
264 256 254 254 249 249 247 241 243 263 273 276 293 303 303 307 312 318 323 322 320 318 315 307 289 265 242 234 220 209 218 225 224 218 214 212 207 199 194 192 188 185 193 199
265 274 312 265 238 237 232 221 214 241 257 308 323 317 310 308 316 318 317 312 310 307 301 294 285 268 253 243 221 214 224 229 224 217 216 212 205 199 195 190 185 188 194 199
279 333 239 244 244 226 234 249 234 248 275 294 288 288 282 272 295 319 315 309 304 299 296 293 288 280 267 251 226 224 231 233 225 216 217 210 204 202 197 189 188 192 196 202
221 252 271 287 271 222 214 270 249 236 268 284 291 309 291 253 287 295 294 290 287 287 289 290 291 289 278 262 241 236 239 238 226 212 210 204 205 203 195 187 189 193 195 201
196 225 253 251 256 71 140 281 271 210 291 303 333 335 296 304 312 305 299 295 295 299 299 298 298 302 285 273 257 249 247 241 224 211 209 209 207 201 192 190 192 190 199 202
217 237 263 261 281 136 209 252 296 295 298 298 277 255 271 295 301 300 303 304 307 309 307 302 307 308 288 280 270 265 257 239 221 211 212 211 204 194 184 187 188 192 199 203
201 221 256 250 169 202 240 284 300 300 297 294 288 288 295 299 298 303 306 307 312 313 309 308 309 303 289 284 280 274 256 237 223 211 205 203 196 191 185 185 187 193 196 204
205 226 246 230 229 256 283 288 289 286 288 290 292 295 300 299 302 305 304 305 308 308 307 308 307 297 289 290 292 284 265 246 227 208 199 193 191 190 186 187 191 193 193 204
254 258 260 267 269 272 273 277 280 277 279 283 286 291 296 297 298 301 300 305 308 312 310 309 310 303 288 290 292 283 270 254 224 205 199 194 193 192 193 194 195 194 193 200
260 271 278 258 257 266 274 278 281 282 283 283 287 290 289 292 294 296 298 300 304 303 301 302 305 303 299 295 294 284 271 254 225 208 198 198 201 204 203 207 202 196 195 190
265 269 272 281 277 279 282 282 282 285 293 296 286 286 290 290 291 293 297 300 302 299 299 301 303 301 300 298 292 281 275 254 225 208 201 199 204 214 222 217 221 218 206 193
262 272 273 284 288 285 280 281 278 278 292 301 298 288 289 291 292 295 298 299 298 298 298 299 300 299 300 298 292 276 266 256 226 211 203 203 204 208 215 221 224 220 210 203
267 278 281 284 286 288 281 298 334 311 295 285 284 292 294 293 294 297 297 296 296 296 296 297 297 297 298 298 294 283 269 258 240 216 206 204 206 208 207 203 202 207 211 208
267 264 269 281 290 311 354 344 329 316 310 307 302 301 300 299 299 297 296 296 294 293 295 297 298 297 300 299 295 288 276 259 240 217 208 205 205 205 207 207 206 196 181 202
282 287 284 287 295 326 339 330 314 304 305 304 305 302 297 292 291 291 292 292 295 298 299 300 297 296 298 297 295 291 277 271 257 227 212 206 204 205 206 205 204 196 193 189
268 275 291 313 316 308 296 288 283 286 292 294 295 296 297 297 296 296 296 294 288 288 289 289 288 290 291 289 288 289 281 274 267 244 212 206 205 207 206 204 204 203 199 190
210 201 194 240 270 284 289 288 284 284 283 283 289 293 294 295 295 295 297 299 297 294 288 280 279 286 285 286 284 279 273 261 248 239 216 208 207 207 205 204 206 205 192 192
51 311 293 290 283 280 279 282 282 280 281 285 288 289 288 287 286 287 292 296 296 295 291 287 301 304 291 289 294 269 262 258 249 240 223 221 217 207 205 204 204 201 191 186
321 313 302 292 286 277 276 278 280 283 284 285 287 289 289 288 289 291 292 288 280 274 281 291 294 288 286 287 294 269 255 250 244 237 225 218 214 204 201 202 201 198 192 190
308 302 296 290 286 279 275 277 281 286 287 285 284 285 286 288 289 289 289 291 288 283 285 293 294 288 289 287 290 266 251 245 238 230 223 217 214 207 200 199 198 196 192 189
293 291 288 286 285 285 281 278 280 284 288 286 285 284 286 289 289 286 275 273 282 290 295 287 286 288 293 295 280 263 253 242 234 224 218 213 208 205 199 194 194 193 189 184
284 282 282 282 283 286 288 284 281 283 283 284 286 286 285 285 286 287 290 286 286 293 296 286 288 295 300 299 280 271 261 248 232 221 213 209 204 199 195 191 189 187 181 178
283 282 279 280 284 289 290 287 283 282 281 282 279 277 278 284 284 275 274 288 295 297 294 288 293 298 304 296 283 277 267 251 233 218 209 202 195 190 186 184 182 179 175 173
276 278 279 282 285 284 283 287 289 287 285 283 280 278 273 268 275 285 288 288 291 297 294 292 295 298 297 284 282 279 273 255 233 209 200 194 188 183 179 176 175 172 170 172
274 276 276 272 273 279 282 284 284 286 288 290 289 287 284 282 280 283 286 287 286 291 293 289 288 290 285 281 280 281 276 267 250 213 191 185 180 175 171 170 167 167 165 166
274 274 276 276 273 270 270 273 278 282 283 286 289 291 290 290 290 290 291 291 292 290 289 288 286 284 283 284 284 281 273 252 221 192 178 175 171 168 165 161 162 159 157 161